Location: Ariel
(45.9570°N, 122.5700°W)
Time: 12:55:37
(UTC-07:00)

Vanguard 3 - Pass Details

Date: 03 September 2019
Orbit: 508 x 3263 km, 33.4° (Epoch: 14 September)

Event Time Altitude Azimuth Distance (km) Brightness Sun altitude
Rises 13:44:54 0° 228° (SW) 7,168 12.5 50.7°
Reaches altitude 10° 13:50:32 10° 221° (SW) 5,979 12.3 50.5°
Maximum altitude 14:05:38 36° 164° (SSE) 3,347 11.5 49.6°
Drops below altitude 10° 14:15:45 10° 103° (ESE) 4,029 10.7 48.9°
Sets 14:18:42 0° 94° (E) 4,678 10.9 48.7°
